Location: Bartlow
(52.0833°N, 0.3167°E)
Time: 05:09:23
(UTC+00:00)

Cosmos 292 Rocket - Pass Details

Date: 26 September 2023
Orbit: 670 x 689 km, 74.0° (Epoch: 29 November)

Event Time Altitude Azimuth Distance (km) Brightness Sun altitude
Exits shadow 04:00:09 10° 189° (S) 2,113 6.0 -17.4°
Maximum altitude 04:04:49 60° 110° (ESE) 783 4.2 -16.8°
Drops below altitude 10° 04:09:32 10° 31° (NNE) 2,132 7.1 -16.1°
Sets 04:11:52 0° 28° (NNE) 3,048 7.9 -15.7°
